Snowfall_Accumulation
0.0 0.0 0.0 0.0 0.0 0.1 0.1 0.3 4.3 3.2 0.0 0.0 0.0 0.0 0.0 0.0 0.0 0.0 0.0 0.0 0.0 0.0 0.0 0.0 0.0 0.0 0.0 0.0 0.0 0.0 0.0 0.0 0.0 0.0 0.0 0.0 0.0 0.0
0.0 0.0 0.1 0.1 0.0 0.0 0.2 0.1 0.3 1.4 1.6 0.0 0.0 0.0 0.0 0.0 0.0 0.0 0.0 0.0 0.0 0.0 0.0 0.0 0.0 0.0 0.0 0.0 0.0 0.0 0.0 0.0 0.0 0.0 0.0 0.0 0.0 0.0
0.0 0.0 0.1 0.1 0.2 0.2 0.1 0.2 0.3 0.4 1.4 0.0 0.0 0.0 0.0 0.0 0.0 0.0 0.0 0.0 0.0 0.0 0.0 0.0 0.0 0.0 0.0 0.0 0.0 0.0 0.0 0.0 0.0 0.0 0.0 0.0 0.0 0.0
0.2 0.1 0.1 0.1 0.2 0.1 0.2 0.3 0.5 0.5 0.9 0.4 0.0 0.0 0.0 0.0 0.0 0.0 0.0 0.0 0.0 0.0 0.0 0.0 0.0 0.0 0.0 0.0 0.0 0.0 0.0 0.0 0.0 0.0 0.0 0.0 0.0 0.0
0.8 0.7 0.3 0.4 0.6 0.5 0.5 0.7 0.3 0.2 0.3 0.4 0.1 0.0 0.0 0.0 0.0 0.0 0.0 0.0 0.0 0.0 0.0 0.0 0.0 0.0 0.0 0.0 0.0 0.0 0.0 0.0 0.0 0.0 0.0 0.0 0.0 0.1
2.2 2.3 1.8 1.2 1.2 2.0 0.5 0.5 0.3 0.4 0.5 0.3 0.1 0.0 0.0 0.0 0.0 0.2 0.0 0.0 0.0 0.0 0.0 0.0 0.0 0.0 0.0 0.0 0.0 0.0 0.0 0.0 0.0 0.0 0.0 0.0 0.0 0.0
5.1 3.5 4.4 4.4 2.6 3.0 3.6 2.9 0.8 1.1 1.0 0.6 0.5 0.2 0.1 0.2 0.1 0.2 0.4 0.1 0.0 0.0 0.0 0.0 0.0 0.0 0.0 0.0 0.1 0.1 0.0 0.0 0.0 0.0 0.0 0.0 0.0 0.0
4.1 5.2 4.1 4.8 3.2 4.0 3.6 3.6 4.3 2.5 5.0 4.3 3.6 1.6 0.8 2.7 2.3 2.7 2.0 5.2 4.3 0.2 0.6 1.2 0.1 0.1 0.1 0.1 0.1 0.1 0.1 0.3 0.4 0.5 0.5 0.6 0.0 0.0
5.3 4.2 4.3 4.8 4.3 3.3 4.1 3.8 4.0 3.9 4.7 7.6 8.4 5.9 5.3 3.8 4.6 6.9 3.1 3.3 2.9 0.1 2.4 2.2 0.6 0.8 0.3 0.4 0.2 0.2 0.1 0.0 0.0 0.0 0.0 0.8 0.8 0.9
5.0 4.6 4.1 3.4 4.2 4.8 5.1 6.0 8.0 7.5 7.4 8.6 7.8 6.9 3.4 3.4 5.8 5.9 4.4 3.8 2.5 1.1 1.6 4.9 2.6 0.9 0.7 0.2 0.1 0.0 0.2 0.5 0.7 0.7 0.7 0.6 0.3 0.9
1.5 3.1 4.0 3.5 6.6 8.3 9.6 10.3 7.9 5.3 7.1 6.3 7.7 6.0 6.7 4.9 4.6 9.9 6.3 8.2 5.1 1.9 1.2 4.7 2.0 2.8 4.1 5.0 4.4 0.4 0.2 0.1 0.3 0.2 2.0 1.7 1.3 1.2
0.4 1.4 4.4 4.8 4.9 5.4 7.9 8.5 9.2 6.8 6.7 6.1 6.2 5.8 4.9 4.8 4.2 6.8 11.1 10.6 6.8 7.1 1.5 4.4 2.0 3.9 7.5 4.4 5.3 6.1 4.3 4.3 0.7 1.8 1.3 1.9 1.5 2.8
2.5 2.7 2.2 3.7 5.5 3.9 4.3 6.4 7.7 4.5 4.4 6.0 6.4 7.5 6.8 6.5 6.6 6.6 7.8 9.8 15.0 9.0 4.5 6.6 4.6 2.7 7.3 4.8 5.7 6.5 8.1 12.0 7.5 6.3 4.8 6.3 2.7 4.7
6.6 5.7 5.2 5.0 4.1 3.9 3.0 5.3 4.2 3.7 6.2 7.2 7.3 6.9 9.3 9.2 7.4 8.4 7.6 8.7 8.9 9.1 5.5 12.5 14.6 4.5 7.6 9.4 6.3 6.3 10.9 12.5 15.0 11.1 9.8 10.4 8.6 6.5
5.9 5.6 5.3 4.4 3.6 4.2 3.6 4.1 4.6 6.9 7.4 7.0 6.1 4.8 5.0 5.7 6.4 7.2 8.1 8.9 8.4 8.3 11.2 10.3 9.1 7.5 12.3 11.4 4.7 5.6 13.0 13.9 11.2 10.9 12.5 12.7 11.5 9.6
5.3 4.7 5.8 5.3 4.7 5.0 5.8 5.2 6.6 7.1 6.3 6.3 4.9 3.7 3.4 4.6 5.5 6.1 9.1 9.3 14.2 14.5 11.1 12.2 15.8 12.4 15.0 10.3 7.7 9.0 7.1 10.4 10.2 10.9 10.8 11.0 9.4 7.8
7.3 7.4 7.1 5.4 4.8 3.4 2.8 2.4 2.4 2.4 3.8 3.7 3.5 2.7 3.4 3.4 6.1 5.3 6.6 6.8 12.1 12.2 12.7 13.6 14.3 17.3 12.2 10.2 10.7 6.7 7.4 7.8 8.6 9.2 10.9 9.6 8.7 10.2
7.0 5.5 4.1 3.8 3.5 3.4 3.9 4.1 2.5 1.7 1.8 2.2 2.5 2.7 3.8 4.8 4.7 4.6 5.0 9.4 9.6 9.9 12.6 12.6 13.4 17.6 17.2 13.0 8.4 7.1 11.9 11.0 8.5 6.2 7.7 9.9 8.4 8.1
7.1 5.5 4.9 5.1 3.7 4.5 3.7 3.6 3.5 3.3 2.9 3.6 2.8 4.3 3.2 3.3 4.7 4.1 5.5 7.3 8.7 6.4 8.9 11.5 14.9 15.9 19.0 17.0 9.1 4.3 8.6 6.6 6.6 6.6 7.8 8.3 10.9 8.9
7.5 7.0 6.5 5.1 4.7 3.5 4.0 3.8 3.4 3.3 3.4 2.6 3.5 2.8 3.6 3.7 3.3 4.6 4.8 6.6 6.5 6.3 5.6 6.7 10.4 12.1 16.6 16.8 15.5 10.9 10.1 8.8 8.9 8.3 8.9 7.6 9.7 10.0
8.6 7.2 9.0 8.7 6.8 6.3 6.3 5.4 6.2 5.9 6.0 4.2 4.7 5.3 5.4 5.4 5.0 3.4 4.3 5.5 6.5 7.3 6.3 7.4 8.0 11.2 12.8 14.5 18.5 15.7 15.5 13.6 12.5 10.9 10.5 12.0 12.0 8.6
14.8 13.6 12.6 12.7 12.4 11.6 10.7 9.8 8.7 8.1 7.5 6.3 6.0 6.0 6.4 6.2 6.1 6.3 6.0 8.4 8.3 7.8 8.2 7.7 7.8 8.7 11.6 13.8 15.6 13.4 15.4 16.3 12.9 13.4 12.9 10.1 12.6 12.8
14.2 13.7 12.7 11.6 10.9 10.8 10.4 10.3 9.5 9.5 8.8 8.0 7.7 7.1 7.0 7.5 6.9 7.0 6.5 5.7 6.0 6.2 6.1 8.1 8.3 8.8 11.0 11.5 13.3 15.3 13.9 14.3 15.2 13.0 15.6 7.0 5.9 5.4